| time (UTC) | temp F | wind direction | speed MPH | gust MPH | rain 1hr in | rain 24hr in | rain mn in | humidity % | barometer mb |
| 20260905150042 | 42 | 228 | 0.0 | 0.0 | 0.00 | 0.00 | 0.00 | 92 | 1021.0 |
| 20260905144540 | 42 | 226 | 0.0 | 0.0 | 0.00 | 0.00 | 0.00 | 92 | 1020.9 |
| 20260905143040 | 41 | 226 | 0.0 | 0.0 | 0.00 | 0.00 | 0.00 | 91 | 1020.9 |
| 20260905141538 | 41 | 226 | 0.0 | 0.0 | 0.00 | 0.00 | 0.00 | 91 | 1020.9 |
| 20260905140037 | 41 | 226 | 0.0 | 0.0 | 0.00 | 0.00 | 0.00 | 91 | 1020.8 |
| 20260905134539 | 41 | 226 | 0.0 | 0.0 | 0.00 | 0.00 | 0.00 | 91 | 1020.9 |
| 20260905133034 | 42 | 226 | 0.0 | 0.0 | 0.00 | 0.00 | 0.00 | 91 | 1020.9 |
| 20260905131533 | 42 | 226 | 0.0 | 0.0 | 0.00 | 0.00 | 0.00 | 91 | 1020.8 |
| 20260905130034 | 42 | 226 | 0.0 | 0.0 | 0.00 | 0.00 | 0.00 | 90 | 1020.9 |
| 20260905124533 | 42 | 226 | 0.0 | 0.0 | 0.00 | 0.00 | 0.00 | 91 | 1021.0 |
| 20260905123030 | 42 | 226 | 0.0 | 0.0 | 0.00 | 0.00 | 0.00 | 90 | 1020.9 |
| 20260905121530 | 43 | 226 | 0.0 | 0.0 | 0.00 | 0.00 | 0.00 | 90 | 1020.9 |
| 20260905120029 | 43 | 226 | 0.0 | 0.0 | 0.00 | 0.00 | 0.00 | 90 | 1020.9 |
| 20260905114529 | 42 | 226 | 0.0 | 0.0 | 0.00 | 0.00 | 0.00 | 90 | 1020.8 |
| 20260905113029 | 42 | 226 | 0.0 | 0.0 | 0.00 | 0.00 | 0.00 | 89 | 1021.1 |
| 20260905111526 | 43 | 226 | 0.0 | 0.0 | 0.00 | 0.00 | 0.00 | 89 | 1021.1 |
| 20260905110025 | 43 | 226 | 0.0 | 0.0 | 0.00 | 0.00 | 0.00 | 89 | 1021.0 |
| 20260905104524 | 43 | 226 | 0.0 | 0.0 | 0.00 | 0.01 | 0.00 | 89 | 1021.0 |
| 20260905103023 | 43 | 226 | 0.0 | 0.0 | 0.00 | 0.01 | 0.00 | 89 | 1021.0 |
| 20260905101528 | 44 | 226 | 0.0 | 0.0 | 0.00 | 0.01 | 0.00 | 89 | 1021.1 |
| 20260905100021 | 44 | 226 | 0.0 | 0.0 | 0.00 | 0.01 | 0.00 | 89 | 1021.0 |
| 20260905094520 | 44 | 226 | 0.0 | 0.0 | 0.00 | 0.01 | 0.00 | 88 | 1021.0 |
| 20260905093020 | 44 | 226 | 0.0 | 0.0 | 0.00 | 0.01 | 0.00 | 88 | 1020.9 |
| 20260905091516 | 45 | 226 | 0.0 | 0.0 | 0.00 | 0.01 | 0.00 | 88 | 1021.0 |
| 20260905090017 | 45 | 226 | 0.0 | 0.0 | 0.00 | 0.01 | 0.00 | 88 | 1020.9 |
| 20260905084515 | 45 | 226 | 0.0 | 0.0 | 0.00 | 0.01 | 0.00 | 88 | 1021.0 |
| 20260905083011 | 45 | 226 | 0.0 | 0.0 | 0.00 | 0.01 | 0.00 | 88 | 1021.1 |
| 20260905081519 | 46 | 226 | 0.0 | 0.0 | 0.00 | 0.01 | 0.00 | 87 | 1021.1 |
| 20260905080015 | 46 | 226 | 0.0 | 0.0 | 0.00 | 0.01 | 0.00 | 87 | 1021.0 |
| 20260905074507 | 46 | 226 | 0.0 | 0.0 | 0.00 | 0.01 | 0.00 | 87 | 1020.9 |
| 20260905073004 | 47 | 226 | 0.0 | 0.0 | 0.00 | 0.01 | 0.00 | 86 | 1020.8 |
| 20260905071501 | 47 | 226 | 0.0 | 0.0 | 0.00 | 0.01 | 0.00 | 85 | 1020.7 |
| 20260905070111 | 48 | 226 | 0.0 | 0.0 | 0.00 | 0.01 | 0.00 | 85 | 1020.6 |
| 20260905064559 | 48 | 226 | 0.0 | 0.0 | 0.00 | 0.01 | 0.01 | 86 | 1020.4 |
| 20260905063059 | 48 | 226 | 0.0 | 0.0 | 0.00 | 0.01 | 0.01 | 86 | 1020.4 |
| 20260905061613 | 48 | 226 | 0.0 | 0.0 | 0.00 | 0.01 | 0.01 | 86 | 1020.4 |
| 20260905060057 | 48 | 226 | 0.0 | 0.0 | 0.00 | 0.01 | 0.01 | 85 | 1020.6 |
| 20260905054601 | 49 | 226 | 0.0 | 0.0 | 0.00 | 0.01 | 0.01 | 84 | 1020.5 |
| 20260905053055 | 49 | 226 | 0.0 | 0.0 | 0.00 | 0.01 | 0.01 | 83 | 1020.4 |
| 20260905051555 | 50 | 226 | 0.0 | 0.0 | 0.00 | 0.01 | 0.01 | 82 | 1020.2 |
| 20260905050054 | 50 | 226 | 0.0 | 0.0 | 0.00 | 0.01 | 0.01 | 82 | 1020.3 |
| 20260905044554 | 50 | 226 | 0.0 | 0.0 | 0.00 | 0.01 | 0.01 | 80 | 1020.3 |
| 20260905043052 | 50 | 226 | 0.0 | 0.0 | 0.00 | 0.01 | 0.01 | 79 | 1020.1 |
| 20260905041556 | 51 | 226 | 0.0 | 0.0 | 0.00 | 0.01 | 0.01 | 78 | 1020.0 |
| 20260905040054 | 52 | 226 | 0.0 | 0.0 | 0.00 | 0.01 | 0.01 | 77 | 1020.0 |
| 20260905034549 | 52 | 226 | 0.0 | 0.0 | 0.00 | 0.01 | 0.01 | 75 | 1019.9 |
| 20260905033052 | 54 | 226 | 0.0 | 0.0 | 0.00 | 0.01 | 0.01 | 72 | 1019.6 |
| 20260905031548 | 55 | 226 | 0.0 | 0.0 | 0.00 | 0.01 | 0.01 | 70 | 1019.3 |
| 20260905030048 | 55 | 226 | 0.0 | 0.0 | 0.00 | 0.01 | 0.01 | 70 | 1019.3 |
| 20260905024544 | 56 | 226 | 0.0 | 0.0 | 0.00 | 0.01 | 0.01 | 69 | 1019.2 |
| 20260905023043 | 57 | 226 | 0.0 | 0.0 | 0.00 | 0.01 | 0.01 | 66 | 1019.1 |
| 20260905021542 | 58 | 226 | 0.0 | 0.0 | 0.00 | 0.01 | 0.01 | 66 | 1019.0 |
| 20260905020046 | 58 | 218 | 0.0 | 0.0 | 0.00 | 0.01 | 0.01 | 64 | 1018.9 |
| 20260905014542 | 59 | 164 | 0.0 | 0.0 | 0.00 | 0.01 | 0.01 | 62 | 1019.0 |
| 20260905013040 | 59 | 175 | 0.0 | 0.0 | 0.00 | 0.01 | 0.01 | 62 | 1018.9 |
| 20260905011540 | 60 | 173 | 0.0 | 0.0 | 0.00 | 0.01 | 0.01 | 63 | 1018.7 |
| 20260905010042 | 59 | 180 | 0.0 | 0.0 | 0.00 | 0.01 | 0.01 | 65 | 1018.7 |
| 20260905004540 | 59 | 156 | 0.0 | 0.0 | 0.00 | 0.02 | 0.01 | 63 | 1018.7 |
| 20260905003039 | 59 | 152 | 0.0 | 0.0 | 0.00 | 0.02 | 0.01 | 65 | 1018.5 |
| 20260905001539 | 59 | 137 | 0.0 | 0.0 | 0.00 | 0.02 | 0.01 | 63 | 1018.4 |
| 20260905000041 | 59 | 179 | 0.0 | 0.0 | 0.00 | 0.02 | 0.01 | 61 | 1018.4 |
| 20260904234544 | 59 | 207 | 0.0 | 1.0 | 0.00 | 0.05 | 0.01 | 61 | 1018.3 |
| 20260904233037 | 59 | 128 | 0.0 | 0.0 | 0.00 | 0.05 | 0.01 | 63 | 1018.3 |
| 20260904231536 | 59 | 197 | 0.0 | 0.0 | 0.00 | 0.05 | 0.01 | 62 | 1018.5 |
| 20260904230039 | 59 | 241 | 0.0 | 0.0 | 0.00 | 0.05 | 0.01 | 61 | 1018.6 |
| 20260904224541 | 60 | 170 | 0.0 | 0.0 | 0.00 | 0.05 | 0.01 | 61 | 1018.4 |
| 20260904223035 | 61 | 137 | 0.0 | 0.0 | 0.00 | 0.05 | 0.01 | 62 | 1018.4 |
| 20260904221536 | 61 | 207 | 0.0 | 0.0 | 0.00 | 0.05 | 0.01 | 61 | 1018.4 |
| 20260904220034 | 62 | 186 | 0.0 | 0.0 | 0.00 | 0.05 | 0.01 | 57 | 1018.4 |
| 20260904214533 | 63 | 229 | 0.0 | 1.0 | 0.00 | 0.06 | 0.01 | 57 | 1018.5 |
| 20260904213033 | 63 | 183 | 0.0 | 0.0 | 0.00 | 0.06 | 0.01 | 59 | 1018.3 |
| 20260904211533 | 63 | 295 | 0.0 | 2.0 | 0.00 | 0.06 | 0.01 | 57 | 1018.4 |
| 20260904210029 | 63 | 197 | 0.0 | 0.0 | 0.00 | 0.06 | 0.01 | 60 | 1018.4 |
| 20260904204527 | 61 | 28 | 0.0 | 0.0 | 0.00 | 0.09 | 0.01 | 64 | 1018.4 |
| 20260904203033 | 61 | 228 | 0.0 | 0.0 | 0.00 | 0.09 | 0.01 | 61 | 1018.5 |
| 20260904201524 | 61 | 258 | 0.0 | 0.0 | 0.00 | 0.09 | 0.01 | 65 | 1018.5 |
| 20260904200023 | 60 | 244 | 0.0 | 0.0 | 0.00 | 0.09 | 0.01 | 65 | 1018.7 |
| 20260904194521 | 60 | 223 | 0.0 | 0.0 | 0.00 | 0.11 | 0.01 | 69 | 1018.8 |
| 20260904193015 | 58 | 158 | 0.0 | 0.0 | 0.00 | 0.11 | 0.01 | 75 | 1018.8 |
| 20260904191518 | 56 | 174 | 0.0 | 0.0 | 0.00 | 0.11 | 0.01 | 79 | 1018.9 |
| 20260904190014 | 54 | 227 | 0.0 | 0.0 | 0.00 | 0.11 | 0.01 | 82 | 1019.1 |
| 20260904184505 | 53 | 212 | 0.0 | 1.0 | 0.00 | 0.13 | 0.01 | 85 | 1019.2 |
| 20260904183003 | 52 | 195 | 0.0 | 0.0 | 0.00 | 0.13 | 0.01 | 86 | 1019.2 |
| 20260904181558 | 52 | 202 | 0.0 | 0.0 | 0.00 | 0.13 | 0.01 | 87 | 1019.3 |
| 20260904180056 | 51 | 136 | 0.0 | 0.0 | 0.00 | 0.13 | 0.01 | 89 | 1019.1 |
| 20260904174552 | 50 | 202 | 0.0 | 1.0 | 0.00 | 0.15 | 0.01 | 91 | 1019.1 |
| 20260904173046 | 49 | 159 | 0.0 | 1.0 | 0.00 | 0.15 | 0.01 | 93 | 1018.9 |
| 20260904171551 | 48 | 202 | 0.0 | 0.0 | 0.00 | 0.15 | 0.01 | 95 | 1018.8 |
| 20260904170040 | 47 | 237 | 0.0 | 0.0 | 0.00 | 0.15 | 0.01 | 95 | 1018.7 |
| 20260904164536 | 46 | 141 | 0.0 | 0.0 | 0.00 | 0.15 | 0.01 | 95 | 1018.5 |
| 20260904163033 | 45 | 196 | 0.0 | 1.0 | 0.00 | 0.15 | 0.01 | 95 | 1018.6 |
| 20260904161531 | 45 | 219 | 0.0 | 0.0 | 0.00 | 0.15 | 0.01 | 95 | 1018.6 |
| 20260904160044 | 44 | 168 | 0.0 | 0.0 | 0.00 | 0.15 | 0.01 | 95 | 1018.7 |
| 20260904154533 | 43 | 185 | 0.0 | 0.0 | 0.00 | 0.17 | 0.01 | 95 | 1018.7 |
| 20260904153024 | 42 | 143 | 0.0 | 0.0 | 0.00 | 0.17 | 0.01 | 95 | 1018.6 |
| 20260904151527 | 40 | 91 | 0.0 | 0.0 | 0.00 | 0.17 | 0.01 | 94 | 1018.6 |